When you browse on this site, cookies collect data to enhance your experience and personalize the content and advertising you see.
Visit our Privacy Policy to learn more. By continuing to use the site, you agree to this use of cookies and data.
  • In Portugal
  • List of Countries
  • For 7 days
  • Water Temperature
  • Satellite Maps
  • Weather Map
  • Weather Widgets
  • user-avatar
    Login

    Hourly Weather Hrodna

    Today, 23 May, Thursday

    Time Temperature Precipitation Wind Pressure Humidity
    00:00 +13°C° 0 mm 0 mps 746 mmHg 87%
    01:00 +13°C° 0 mm 0 mps 746 mmHg 88%
    02:00 +14°C° 0 mm 1 mps 746 mmHg 88%
    03:00 +14°C° 0 mm 1 mps 746 mmHg 89%
    04:00 +14°C° 0 mm 1 mps 746 mmHg 89%
    05:00 +14°C° 0 mm 1 mps 746 mmHg 89%
    06:00 +16°C° 0 mm 1 mps 746 mmHg 83%
    07:00 +18°C° 0 mm 1 mps 746 mmHg 78%
    08:00 +20°C° 0 mm 1 mps 746 mmHg 72%
    09:00 +22°C° 0.1 mm 1 mps 746 mmHg 68%
    10:00 +23°C° 0.1 mm 2 mps 746 mmHg 63%
    11:00 +24°C° 0.1 mm 2 mps 746 mmHg 58%
    12:00 +24°C° 0.2 mm 2 mps 746 mmHg 57%
    13:00 +25°C° 0.2 mm 2 mps 746 mmHg 56%
    14:00 +25°C° 0.2 mm 2 mps 746 mmHg 55%
    15:00 +25°C° 0.4 mm 3 mps 746 mmHg 59%
    16:00 +24°C° 0.4 mm 3 mps 746 mmHg 63%
    17:00 +24°C° 0.4 mm 3 mps 746 mmHg 67%
    18:00 +21°C° 0.3 mm 3 mps 746 mmHg 74%
    19:00 +20°C° 0.3 mm 3 mps 746 mmHg 81%
    20:00 +19°C° 0.3 mm 2 mps 747 mmHg 88%
    21:00 +17°C° 0.1 mm 3 mps 747 mmHg 91%
    22:00 +16°C° 0.1 mm 3 mps 747 mmHg 93%
    23:00 +14°C° 0.1 mm 4 mps 747 mmHg 96%

    Tomorrow, 24 May, Friday

    Time Temperature Precipitation Wind Pressure Humidity
    00:00 +12°C° 0 mm 4 mps 748 mmHg 96%
    01:00 +11°C° 0 mm 3 mps 748 mmHg 97%
    02:00 +10°C° 0 mm 3 mps 748 mmHg 97%
    03:00 +10°C° 0 mm 3 mps 748 mmHg 97%
    04:00 +10°C° 0 mm 3 mps 748 mmHg 96%
    05:00 +10°C° 0 mm 3 mps 748 mmHg 96%
    06:00 +11°C° 0 mm 3 mps 748 mmHg 94%
    07:00 +11°C° 0 mm 3 mps 748 mmHg 92%
    08:00 +13°C° 0 mm 2 mps 748 mmHg 90%
    09:00 +15°C° 0 mm 2 mps 748 mmHg 85%
    10:00 +17°C° 0 mm 3 mps 748 mmHg 80%
    11:00 +18°C° 0 mm 3 mps 748 mmHg 74%
    12:00 +19°C° 0 mm 3 mps 748 mmHg 72%
    13:00 +20°C° 0 mm 3 mps 747 mmHg 70%
    14:00 +21°C° 0 mm 3 mps 747 mmHg 68%
    15:00 +21°C° 0.5 mm 4 mps 747 mmHg 70%
    16:00 +21°C° 0.5 mm 4 mps 747 mmHg 72%
    17:00 +21°C° 0.5 mm 4 mps 747 mmHg 73%
    18:00 +19°C° 0.2 mm 4 mps 747 mmHg 76%
    19:00 +18°C° 0.2 mm 4 mps 747 mmHg 79%
    20:00 +17°C° 0.2 mm 3 mps 747 mmHg 82%
    21:00 +14°C° 0 mm 3 mps 747 mmHg 84%
    22:00 +13°C° 0 mm 3 mps 747 mmHg 85%
    23:00 +11°C° 0 mm 3 mps 747 mmHg 86%

    Day after tomorrow, 25 May, Saturday

    Time Temperature Precipitation Wind Pressure Humidity
    00:00 +11°C° 0 mm 3 mps 747 mmHg 87%
    01:00 +10°C° 0 mm 2 mps 747 mmHg 88%
    02:00 +10°C° 0 mm 2 mps 747 mmHg 88%
    03:00 +10°C° 0 mm 2 mps 747 mmHg 88%
    04:00 +9°C° 0 mm 2 mps 747 mmHg 88%
    05:00 +9°C° 0 mm 2 mps 747 mmHg 88%
    06:00 +12°C° 0 mm 2 mps 747 mmHg 81%
    07:00 +14°C° 0 mm 2 mps 747 mmHg 73%
    08:00 +16°C° 0 mm 2 mps 747 mmHg 66%
    09:00 +17°C° 0 mm 2 mps 746 mmHg 64%
    10:00 +19°C° 0 mm 3 mps 746 mmHg 61%
    11:00 +20°C° 0 mm 4 mps 746 mmHg 59%
    12:00 +20°C° 0.3 mm 4 mps 746 mmHg 60%
    13:00 +21°C° 0.3 mm 5 mps 746 mmHg 60%
    14:00 +21°C° 0.3 mm 6 mps 745 mmHg 61%
    15:00 +21°C° 0.1 mm 5 mps 745 mmHg 61%
    16:00 +21°C° 0.1 mm 5 mps 745 mmHg 61%
    17:00 +20°C° 0.1 mm 5 mps 745 mmHg 62%
    18:00 +19°C° 0.1 mm 4 mps 745 mmHg 68%
    19:00 +17°C° 0.1 mm 4 mps 745 mmHg 74%
    20:00 +14°C° 0.1 mm 3 mps 745 mmHg 81%
    21:00 +12°C° 0 mm 3 mps 746 mmHg 85%
    22:00 +12°C° 0 mm 2 mps 746 mmHg 89%
    23:00 +9°C° 0 mm 2 mps 746 mmHg 94%

    26 May, Sunday

    Time Temperature Precipitation Wind Pressure Humidity
    00:00 +9°C° 0 mm 2 mps 746 mmHg 94%
    01:00 +8°C° 0 mm 2 mps 746 mmHg 94%
    02:00 +8°C° 0 mm 2 mps 746 mmHg 94%
    03:00 +8°C° 0 mm 2 mps 746 mmHg 95%
    04:00 +8°C° 0 mm 2 mps 746 mmHg 95%
    05:00 +8°C° 0 mm 3 mps 746 mmHg 96%
    06:00 +10°C° 0 mm 3 mps 746 mmHg 89%
    07:00 +12°C° 0 mm 3 mps 746 mmHg 83%
    08:00 +13°C° 0 mm 4 mps 746 mmHg 76%
    09:00 +14°C° 0 mm 4 mps 746 mmHg 74%
    10:00 +15°C° 0 mm 5 mps 745 mmHg 72%
    11:00 +15°C° 0 mm 5 mps 745 mmHg 69%
    12:00 +16°C° 0.2 mm 6 mps 745 mmHg 70%
    13:00 +16°C° 0.2 mm 6 mps 745 mmHg 70%
    14:00 +16°C° 0.2 mm 7 mps 745 mmHg 70%
    15:00 +15°C° 0.3 mm 6 mps 744 mmHg 73%
    16:00 +14°C° 0.3 mm 6 mps 744 mmHg 76%
    17:00 +13°C° 0.3 mm 5 mps 744 mmHg 79%
    18:00 +13°C° 0.1 mm 5 mps 744 mmHg 81%
    19:00 +12°C° 0.1 mm 4 mps 744 mmHg 82%
    20:00 +12°C° 0.1 mm 4 mps 744 mmHg 84%
    21:00 +11°C° 0.1 mm 4 mps 745 mmHg 87%
    22:00 +10°C° 0.1 mm 3 mps 745 mmHg 90%
    23:00 +9°C° 0.1 mm 3 mps 745 mmHg 93%

    27 May, Monday

    Time Temperature Precipitation Wind Pressure Humidity
    00:00 +8°C° 0 mm 3 mps 745 mmHg 93%
    01:00 +7°C° 0 mm 3 mps 746 mmHg 93%
    02:00 +5°C° 0 mm 3 mps 746 mmHg 93%
    03:00 +5°C° 0 mm 4 mps 746 mmHg 92%
    04:00 +5°C° 0 mm 4 mps 746 mmHg 92%
    05:00 +5°C° 0 mm 4 mps 746 mmHg 91%
    06:00 +6°C° 0 mm 4 mps 746 mmHg 85%
    07:00 +8°C° 0 mm 5 mps 747 mmHg 78%
    08:00 +10°C° 0 mm 5 mps 747 mmHg 72%
    09:00 +13°C° 0 mm 5 mps 747 mmHg 69%
    10:00 +14°C° 0 mm 5 mps 747 mmHg 66%
    11:00 +16°C° 0 mm 5 mps 747 mmHg 63%
    12:00 +16°C° 0 mm 5 mps 747 mmHg 65%
    13:00 +17°C° 0 mm 4 mps 747 mmHg 67%
    14:00 +17°C° 0 mm 4 mps 747 mmHg 69%
    15:00 +18°C° 0 mm 4 mps 746 mmHg 69%
    16:00 +19°C° 0 mm 3 mps 746 mmHg 68%
    17:00 +20°C° 0 mm 3 mps 746 mmHg 68%
    18:00 +19°C° 0 mm 3 mps 746 mmHg 73%
    19:00 +18°C° 0 mm 3 mps 746 mmHg 79%
    20:00 +17°C° 0 mm 3 mps 745 mmHg 84%
    21:00 +16°C° 0 mm 3 mps 745 mmHg 85%
    22:00 +16°C° 0 mm 3 mps 745 mmHg 85%
    23:00 +14°C° 0 mm 3 mps 745 mmHg 86%

    28 May, Tuesday

    Time Temperature Precipitation Wind Pressure Humidity
    00:00 +14°C° 0 mm 3 mps 745 mmHg 88%
    01:00 +13°C° 0 mm 3 mps 745 mmHg 90%
    02:00 +13°C° 0 mm 3 mps 745 mmHg 92%
    03:00 +13°C° 0.1 mm 3 mps 744 mmHg 91%
    04:00 +14°C° 0.1 mm 3 mps 744 mmHg 89%
    05:00 +14°C° 0.1 mm 4 mps 743 mmHg 88%
    06:00 +14°C° 3.8 mm 4 mps 743 mmHg 91%
    07:00 +14°C° 3.8 mm 4 mps 742 mmHg 94%
    08:00 +14°C° 3.8 mm 4 mps 742 mmHg 97%
    09:00 +17°C° 0.7 mm 4 mps 741 mmHg 95%
    10:00 +18°C° 0.7 mm 4 mps 741 mmHg 93%
    11:00 +19°C° 0.7 mm 4 mps 740 mmHg 92%
    12:00 +20°C° 0.5 mm 5 mps 740 mmHg 87%
    13:00 +21°C° 0.5 mm 5 mps 740 mmHg 83%
    14:00 +22°C° 0.5 mm 6 mps 740 mmHg 79%
    15:00 +22°C° 0.5 mm 6 mps 740 mmHg 80%
    16:00 +22°C° 0.5 mm 5 mps 740 mmHg 81%
    17:00 +21°C° 0.5 mm 5 mps 739 mmHg 81%
    18:00 +20°C° 0 mm 5 mps 740 mmHg 84%
    19:00 +19°C° 0 mm 4 mps 740 mmHg 86%
    20:00 +18°C° 0 mm 4 mps 740 mmHg 88%
    21:00 +16°C° 0 mm 3 mps 740 mmHg 91%
    22:00 +14°C° 0 mm 3 mps 740 mmHg 94%
    23:00 +13°C° 0 mm 3 mps 741 mmHg 97%
    Show more